This is the latest recevied weather packets stored in our database for station/object NK0Z-13. If no packets are shown the sender has not sent any weather packets the latest 10 day(s).
| Time | Temp. | Humidity | Pressure | Rain* | Wind** | Luminosity | Snow |
|---|---|---|---|---|---|---|---|
| 1777075629 | 21.67° C | 42% | 1010.3 hPa | 0 mm | - | 115 W/m² | - |
| 1777075026 | 21.67° C | 42% | 1010.3 hPa | 0 mm | - | 137 W/m² | - |
| 1777074422 | 22.22° C | 43% | 1010.3 hPa | 0 mm | - | 161 W/m² | - |
| 1777073821 | 22.22° C | 41% | 1010.1 hPa | 0 mm | - | 175 W/m² | - |
| 1777073218 | 22.22° C | 42% | 1010.2 hPa | 0 mm | - | 195 W/m² | - |
| 1777072616 | 22.78° C | 41% | 1010.2 hPa | 0 mm | - | 225 W/m² | - |
| 1777072015 | 23.33° C | 36% | 1010.3 hPa | 0 mm | - | 292 W/m² | - |
| 1777071414 | 23.89° C | 37% | 1010 hPa | 0 mm | - | 327 W/m² | - |
| 1777070811 | 23.33° C | 37% | 1010 hPa | 0 mm | - | 351 W/m² | - |
| 1777070208 | 23.89° C | 37% | 1010.1 hPa | 0 mm | - | 375 W/m² | - |
| 1777069602 | 23.89° C | 37% | 1010 hPa | 0 mm | - | 402 W/m² | - |
| 1777069000 | 23.89° C | 39% | 1010.1 hPa | 0 mm | - | 430 W/m² | - |
| 1777068397 | 23.89° C | 38% | 1010.2 hPa | 0 mm | - | 458 W/m² | - |
| 1777067797 | 23.89° C | 36% | 1010.4 hPa | 0 mm | - | 205 W/m² | - |
| 1777067194 | 23.89° C | 37% | 1010.4 hPa | 0 mm | - | 513 W/m² | - |
| 1777066591 | 23.89° C | 39% | 1010.3 hPa | 0 mm | - | 536 W/m² | - |
| 1777065987 | 23.89° C | 40% | 1010.7 hPa | 0 mm | - | 565 W/m² | - |
| 1777065383 | 23.89° C | 38% | 1010.8 hPa | 0 mm | - | 586 W/m² | - |
| 1777064782 | 23.89° C | 40% | 1010.9 hPa | 0 mm | - | 610 W/m² | - |
| 1777064181 | 23.89° C | 37% | 1011.1 hPa | 0 mm | - | 631 W/m² | - |
| 1777063576 | 23.33° C | 41% | 1011.1 hPa | 0 mm | - | 650 W/m² | - |
| 1777062975 | 23.89° C | 39% | 1011.2 hPa | 0 mm | - | 671 W/m² | - |
| 1777062375 | 23.33° C | 41% | 1011.2 hPa | 0 mm | - | 687 W/m² | - |
| 1777061775 | 23.33° C | 40% | 1011.7 hPa | 0 mm | - | 703 W/m² | - |
| 1777061174 | 23.33° C | 41% | 1012 hPa | 0 mm | - | 717 W/m² | - |
* Rain latest hour (hover to see other rain measurements)
** Current wind speed in m/s (hover to see current wind gust speed)